Tillbaka till svenska Fidonet
English   Information   Debug  
FILM   0/18
FNEWS_PUBLISH   5034
FN_SYSOP   42247
FN_SYSOP_OLD1   71952
FTP_FIDO   0/2
FTSC_PUBLIC   0/13979
FUNNY   0/4886
GENEALOGY.EUR   0/71
GET_INFO   105
GOLDED   0/408
HAM   3371/16786
HOLYSMOKE   0/6791
HOT_SITES   0/1
HTMLEDIT   0/71
HUB203   466
HUB_100   264
HUB_400   39
HUMOR   0/29
IC   0/2851
INTERNET   0/424
INTERUSER   0/3
IP_CONNECT   719
JAMNNTPD   0/233
JAMTLAND   0/47
KATTY_KORNER   0/41
LAN   0/16
LINUX-USER   0/19
LINUXHELP   0/1155
LINUX   0/22427
LINUX_BBS   0/957
mail   18.68
mail_fore_ok   249
MENSA   298/341
MODERATOR   0/102
MONTE   0/992
MOSCOW_OKLAHOMA   0/1245
MUFFIN   0/783
MUSIC   0/321
N203_STAT   938
N203_SYSCHAT   313
NET203   321
NET204   69
NET_DEV   0/10
NORD.ADMIN   0/101
NORD.CHAT   0/2572
NORD.FIDONET   189
NORD.HARDWARE   0/28
NORD.KULTUR   0/114
NORD.PROG   0/32
NORD.SOFTWARE   0/88
NORD.TEKNIK   0/58
NORD   0/453
OCCULT_CHAT   0/93
OS2BBS   0/787
OS2DOSBBS   0/580
OS2HW   0/42
OS2INET   0/37
OS2LAN   0/134
OS2PROG   0/36
OS2REXX   0/113
OS2USER-L   207
OS2   0/4835
OSDEBATE   0/18996
PASCAL   0/490
PERL   0/457
PHP   0/45
POINTS   0/405
POLITICS   0/29554
POL_INC   0/14731
PSION   103
R20_ADMIN   1133
R20_AMATORRADIO   0/2
R20_BEST_OF_FIDONET   16
R20_CHAT   0/897
R20_DEPP   0/3
R20_DEV   400
R20_ECHO2   1934
R20_ECHOPRES   0/35
R20_ESTAT   0/719
R20_FIDONETPROG...
...RAM.MYPOINT
  0/2
R20_FIDONETPROGRAM   0/22
R20_FIDONET   0/248
R20_FILEFIND   0/24
R20_FILEFOUND   0/22
R20_HIFI   0/3
R20_INFO2   3827
R20_INTERNET   0/12940
R20_INTRESSE   0/60
R20_INTR_KOM   0/99
R20_KANDIDAT.CHAT   42
R20_KANDIDAT   28
R20_KOM_DEV   112
R20_KONTROLL   0/13360
R20_KORSET   0/18
R20_LOKALTRAFIK   0/24
R20_MODERATOR   0/1852
R20_NC   76
R20_NET200   245
R20_NETWORK.OTH...
...ERNETS
  0/13
R20_OPERATIVSYS...
...TEM.LINUX
  0/44
R20_PROGRAMVAROR   0/1
R20_REC2NEC   534
R20_SFOSM   0/341
R20_SF   0/108
R20_SPRAK.ENGLISH   0/1
R20_SQUISH   107
R20_TEST   2
R20_WORST_OF_FIDONET   20
RAR   0/9
RA_MULTI   106
RA_UTIL   0/162
REGCON.EUR   0/2072
REGCON   0/13
SCIENCE   0/1206
SF   0/239
SHAREWARE_SUPPORT   0/5146
SHAREWRE   0/14
SIMPSONS   0/169
STATS_OLD1   518/2539.065
STATS_OLD2   0/2530
STATS_OLD3   0/2395.095
STATS_OLD4   0/1692.25
SURVIVOR   0/495
SYSOPS_CORNER   0/3
SYSOP   0/84
TAGLINES   0/112
TEAMOS2   0/4530
TECH   0/2617
TEST.444   0/105
TRAPDOOR   0/19
TREK   0/755
TUB   0/290
UFO   0/40
UNIX   0/1316
USA_EURLINK   0/102
USR_MODEMS   0/1
VATICAN   0/2740
VIETNAM_VETS   0/14
VIRUS   0/378
VIRUS_INFO   0/201
VISUAL_BASIC   0/473
WHITEHOUSE   0/5187
WIN2000   0/101
WIN32   0/30
WIN95   0/4291
WIN95_OLD1   0/70272
WINDOWS   0/1517
WWB_SYSOP   0/419
WWB_TECH   0/810
ZCC-PUBLIC   0/1
ZEC   4

 
4DOS   0/134
ABORTION   0/7
ALASKA_CHAT   0/506
ALLFIX_FILE   0/1313
ALLFIX_FILE_OLD1   0/7997
ALT_DOS   0/152
AMATEUR_RADIO   0/1039
AMIGASALE   0/14
AMIGA   0/331
AMIGA_INT   0/1
AMIGA_PROG   0/20
AMIGA_SYSOP   0/26
ANIME   0/15
ARGUS   0/924
ASCII_ART   0/340
ASIAN_LINK   0/651
ASTRONOMY   0/417
AUDIO   0/92
AUTOMOBILE_RACING   0/105
BABYLON5   0/17862
BAG   135
BATPOWER   0/361
BBBS.ENGLISH   0/382
BBSLAW   0/109
BBS_ADS   0/5290
BBS_INTERNET   0/507
BIBLE   0/3563
BINKD   0/1119
BINKLEY   0/215
BLUEWAVE   0/2173
CABLE_MODEMS   0/25
CBM   0/46
CDRECORD   0/66
CDROM   0/20
CLASSIC_COMPUTER   0/378
COMICS   0/15
CONSPRCY   0/899
COOKING   42383
COOKING_OLD1   0/24719
COOKING_OLD2   31211/40862
COOKING_OLD3   0/37489
COOKING_OLD4   13718/35496
COOKING_OLD5   9370
C_ECHO   0/189
C_PLUSPLUS   0/31
DIRTY_DOZEN   0/201
DOORGAMES   0/2388
DOS_INTERNET   0/196
duplikat   6102
ECHOLIST   14759/18295
EC_SUPPORT   0/318
ELECTRONICS   0/359
ELEKTRONIK.GER   1534
ENET.LINGUISTIC   0/13
ENET.POLITICS   0/4
ENET.SOFT   0/11701
ENET.SYSOP   34411
ENET.TALKS   0/32
ENGLISH_TUTOR   0/2000
EVOLUTION   0/1335
FDECHO   0/217
FDN_ANNOUNCE   5548/7068
FIDONEWS   25226
FIDONEWS_OLD1   0/49742
FIDONEWS_OLD2   0/35949
FIDONEWS_OLD3   0/30874
FIDONEWS_OLD4   0/37224
FIDO_SYSOP   12977
FIDO_UTIL   0/180
FILEFIND   0/209
FILEGATE   0/212
Möte HAM, 16786 texter
 lista första sista föregående nästa
Text 4103, 876 rader
Skriven 2010-10-21 22:30:40 av Amsat List (1:323/120.0)
Ärende: [keps]  orb10294.amsa
=============================
[keps]  orb10294.amsa

Return-Path: <keps-bounces@amsat.org>
X-Rcpt: craig.healy@chowda.com
X-UIDL: 1287713995.17977

SB KEPS @ AMSAT  $ORB10294.O
Orbital Elements  10294.OSCAR

HR AMSAT ORBITAL ELEMENTS FOR OSCAR SATELLITES
FROM WA5QGD FORT WORTH,TX October 21, 2010
BID: ORB10294.O
TO ALL RADIO AMATEURS BT

Satellite: AO-07
Catalog number: 07530
Epoch time:      10294.61572409
Element set:     908
Inclination:      101.4002 deg
RA of node:       305.5678 deg
Eccentricity:    0.0012289
Arg of perigee:   026.5885 deg
Mean anomaly:     333.5809 deg
Mean motion:   12.53579833 rev/day
Decay rate:       -2.7e-07 rev/day^2
Epoch rev:           64429
Checksum:              310

Satellite: FO-29
Catalog number: 24278
Epoch time:      10293.97072939
Element set:    0421
Inclination:      098.5174 deg
RA of node:       105.7450 deg
Eccentricity:    0.0350919
Arg of perigee:   157.4361 deg
Mean anomaly:     204.2645 deg
Mean motion:   13.52953211 rev/day
Decay rate:       -4.9e-07 rev/day^2
Epoch rev:           70011
Checksum:              301

Satellite: SO-33
Catalog number: 25509
Epoch time:      10294.83554111
Element set:     819
Inclination:      031.4335 deg
RA of node:       152.3083 deg
Eccentricity:    0.0354461
Arg of perigee:   317.2235 deg
Mean anomaly:     040.1325 deg
Mean motion:   14.28332545 rev/day
Decay rate:       2.15e-06 rev/day^2
Epoch rev:           62617
Checksum:              268

Satellite: RS-22
Catalog number: 27939
Epoch time:      10294.75064656
Element set:     652
Inclination:      097.8722 deg
RA of node:       154.7398 deg
Eccentricity:    0.0014075
Arg of perigee:   024.2183 deg
Mean anomaly:     335.9680 deg
Mean motion:   14.63465633 rev/day
Decay rate:       1.98e-06 rev/day^2
Epoch rev:           37746
Checksum:              341

Satellite: VO-52
Catalog number: 28650
Epoch time:      10293.59897281
Element set:    0626
Inclination:      097.6787 deg
RA of node:       342.0414 deg
Eccentricity:    0.0026056
Arg of perigee:   224.7803 deg
Mean anomaly:     135.1292 deg
Mean motion:   14.81830800 rev/day
Decay rate:       4.91e-06 rev/day^2
Epoch rev:           29526
Checksum:              317

Satellite: SO-67
Catalog number: 35870
Epoch time:      10294.89391402
Element set:     215
Inclination:      097.3175 deg
RA of node:       340.5794 deg
Eccentricity:    0.0003959
Arg of perigee:   037.4206 deg
Mean anomaly:     080.4003 deg
Mean motion:   15.21124103 rev/day
Decay rate:      1.195e-05 rev/day^2
Epoch rev:            6071
Checksum:              282

Satellite: HO-68
Catalog number: 36122
Epoch time:      10294.80166252
Element set:     775
Inclination:      100.4546 deg
RA of node:       353.8620 deg
Eccentricity:    0.0007796
Arg of perigee:   050.3099 deg
Mean anomaly:     309.8699 deg
Mean motion:   13.16282296 rev/day
Decay rate:       -4.5e-07 rev/day^2
Epoch rev:            4087
Checksum:              319

/EX
SB KEPS @ AMSAT  $ORB10294.D
Orbital Elements  10294.MICROS

HR AMSAT ORBITAL ELEMENTS FOR THE MICROSATS
FROM WA5QGD FORT WORTH,TX October 21, 2010
BID: ORB10294.D
TO ALL RADIO AMATEURS BT

Satellite: UO-11
Catalog number: 14781
Epoch time:      10293.72140373
Element set:    0370
Inclination:      098.0411 deg
RA of node:       345.7379 deg
Eccentricity:    0.0008746
Arg of perigee:   186.6321 deg
Mean anomaly:     173.4797 deg
Mean motion:   14.79847522 rev/day
Decay rate:       3.80e-06 rev/day^2
Epoch rev:           43037
Checksum:              313

Satellite: AO-16
Catalog number: 20439
Epoch time:      10294.73969448
Element set:      23
Inclination:      098.3497 deg
RA of node:       247.7674 deg
Eccentricity:    0.0011334
Arg of perigee:   146.5445 deg
Mean anomaly:     213.6456 deg
Mean motion:   14.31879169 rev/day
Decay rate:        4.5e-07 rev/day^2
Epoch rev:            8349
Checksum:              334

Satellite: LO-19
Catalog number: 20442
Epoch time:      10293.59928732
Element set:    0934
Inclination:      098.3113 deg
RA of node:       251.9682 deg
Eccentricity:    0.0012636
Arg of perigee:   145.1045 deg
Mean anomaly:     215.0959 deg
Mean motion:   14.32108814 rev/day
Decay rate:       1.66e-06 rev/day^2
Epoch rev:           08350
Checksum:              296

Satellite: AO-27
Catalog number: 22825
Epoch time:      10294.86053582
Element set:     655
Inclination:      098.4990 deg
RA of node:       239.6144 deg
Eccentricity:    0.0007511
Arg of perigee:   256.7458 deg
Mean anomaly:     103.2885 deg
Mean motion:   14.29312682 rev/day
Decay rate:        6.5e-07 rev/day^2
Epoch rev:           89014
Checksum:              325

Satellite: IO-26
Catalog number: 22826
Epoch time:      10294.83326315
Element set:     393
Inclination:      098.4937 deg
RA of node:       240.1431 deg
Eccentricity:    0.0008032
Arg of perigee:   250.7703 deg
Mean anomaly:     109.2610 deg
Mean motion:   14.29570442 rev/day
Decay rate:        5.6e-07 rev/day^2
Epoch rev:           89025
Checksum:              285

Satellite: GO-32
Catalog number: 25397
Epoch time:      10294.65028664
Element set:     312
Inclination:      098.3175 deg
RA of node:       295.1599 deg
Eccentricity:    0.0000465
Arg of perigee:   206.6393 deg
Mean anomaly:     153.4759 deg
Mean motion:   14.23186631 rev/day
Decay rate:      -1.62e-06 rev/day^2
Epoch rev:           63803
Checksum:              316

Satellite: NO-44
Catalog number: 26931
Epoch time:      10294.83189750
Element set:     587
Inclination:      067.0523 deg
RA of node:       237.6751 deg
Eccentricity:    0.0005563
Arg of perigee:   271.0936 deg
Mean anomaly:     088.9531 deg
Mean motion:   14.29616862 rev/day
Decay rate:        4.5e-07 rev/day^2
Epoch rev:           47285
Checksum:              332

